Location: Unspecified
(0.0000°N, 0.0000°E)
Time: 13:22:05
(UTC+00:00)

FORMOSAT 3E - Pass Details

Date: 23 May 2026
Orbit: 740 x 833 km, 72.0° (Epoch: 5 June)

Event Time Altitude Azimuth Distance (km) Brightness Sun altitude
Rises 19:39:04 0° 333° (NNW) 3,166 11.9 -23.8°
Reaches altitude 10° 19:41:30 10° 326° (NW) 2,253 11.2 -24.4°
Maximum altitude 19:46:19 42° 255° (WSW) 1,067 9.0 -25.5°
Enters shadow 19:49:13 22° 197° (SSW) 1,615 9.6 -26.1°
